Voltar ao catálogo

STARLINK-11607

AtivoComunicaçõesVLEO
NORAD 63140·PAYLOAD·🇺🇸 United States

Lançado Mar 3, 2025 de Cape Canaveral Space Force Station

Loading…

Próximas Passagens (próximas 24 horas)

TLE

AtualizadoSource: CelesTrak SupGP

Época: Sep 14, 2026, 15:05 UTC

1 63140C 25043J   26257.62895833  .00047370  00000+0  36778-3 0  2575
2 63140  43.0009 191.5807 0001317 273.4453 329.1184 15.70824858    10

Acompanhe STARLINK-11607 em tempo real com AllMySat

Download on the App Store